Tracking 30143 objects as of 20-Jan-2025
HD Live streaming from Space Station
objects crossing your sky now

STTW-T1

Track STTW-T1 now!
10-day predictions
STTW-T1 is classified as:


NORAD ID: 14670
Int'l Code: 1984-008A
Perigee: 461.9 km
Apogee: 6,282.2 km
Inclination: 36.1 °
Period: 159.5 minutes
Semi major axis: 9743 km
RCS: 3.9341 m2 (large)
Launch date: January 29, 1984
Source: People's Republic of China (PRC)
Launch site: Xichang Space Center, China (XSC)
Your satellite tracking list
Your tracking list is empty




NASA's NSSDC Master Catalog

Two Line Element Set (TLE):
1 14670U 84008A   25019.44510395  .00002635  00000-0  11385-2 0  9992
2 14670  36.1489  54.0320 2986892 248.5200  77.3469  9.02734864337394
Source of the keplerian elements: AFSPC